Weather History for Springfield, OH

Change the Weather History Date:

Wednesday, December 19, 2012

  Actual Average (KDAY) Record (KDAY)
Temperature  
Mean Temperature 38 °F 30 °F  
Max Temperature 43 °F 37 °F 60 °F (1895)
Min Temperature 33 °F 23 °F -7 °F (1963)
Degree Days  
Heating Degree Days 27 35  
Month to date heating degree days 613  
Since 1 July heating degree days 1724  
Cooling Degree Days 0 0  
Month to date cooling degree days 0  
Year to date cooling degree days 891  
Moisture  
Dew Point 33 °F    
Average Humidity 79    
Maximum Humidity 89    
Minimum Humidity 68    
Precipitation  
Precipitation 0.00 in 0.09 in 1.55 in (2008)
Month to date precipitation 1.89  
Year to date precipitation 39.82  
Snow  
Snow 0.00 in 0.20 in 5.40 in (1995)
Month to date snowfall 2.3  
Since 1 July snowfall 3.3  
Snow Depth -    
Sea Level Pressure  
Sea Level Pressure 30.01 in    
Wind  
Wind Speed 12 mph (WSW)    
Max Wind Speed 21 mph    
Max Gust Speed 26 mph    
Visibility 4 miles    
Events      
T = Trace of Precipitation, MM = Missing Value Source: NWS Daily Summary

Daily Weather History Graph

Daily Weather History Graph

Search for Another Location

Airport:

Trip Planner

Search our weather history database for the weather conditions in past years. The results will help you decide how hot, cold, wet, or windy it might be!

Date:

Astronomy

Dec. 19, 2012 Rise Set
Actual Time 7:52 AM EST 5:13 PM EST
Civil Twilight 7:21 AM EST 5:43 PM EST
Nautical Twilight 6:47 AM EST 6:17 PM EST
Astronomical Twilight 6:14 AM EST 6:50 PM EST
Moon 12:01 PM EST (12/19) No Moon Set
Length of Visible Light 10h 21m
Length of Day
9h 20m
Waxing Crescent, 45% of the Moon is Illuminated
Dec 19
Waxing Crescent
Dec 20
First Quarter
Dec 28
Full
Jan 4
Last Quarter
Jan 11
New

Hourly Weather History & Observations

Time (EST) Temp. Windchill Dew Point Humidity Pressure Visibility Wind Dir Wind Speed Gust Speed Precip Events Conditions
12:56 AM 38.8 °F 29.7 °F 32.0 °F 76% 29.78 in 7.0 mi WSW 17.3 mph 23.0 mph N/A   Partly Cloudy
1:56 AM 39.9 °F 30.2 °F 32.9 °F 76% 29.80 in 6.0 mi WSW 20.7 mph - N/A   Haze
2:49 AM 41.0 °F 32.2 °F 33.8 °F 76% 29.82 in 6.0 mi West 18.4 mph 26.5 mph N/A   Haze
2:56 AM 41.0 °F 32.8 °F 32.9 °F 73% 29.85 in 7.0 mi West 16.1 mph 26.5 mph N/A   Overcast
3:56 AM 39.9 °F 31.4 °F 32.9 °F 76% 29.87 in 6.0 mi West 16.1 mph - N/A   Haze
4:48 AM 37.4 °F 28.5 °F 33.8 °F 87% 29.88 in 5.0 mi West 15.0 mph - N/A   Haze
4:56 AM 37.9 °F 29.2 °F 32.9 °F 82% 29.90 in 4.0 mi West 15.0 mph 19.6 mph N/A   Haze
5:56 AM 37.9 °F 30.0 °F 32.9 °F 82% 29.93 in 4.0 mi West 12.7 mph - N/A   Haze
6:20 AM 37.4 °F 29.3 °F 33.8 °F 87% 29.94 in 4.0 mi West 12.7 mph - N/A   Overcast
6:56 AM 36.9 °F 28.2 °F 32.0 °F 83% 29.98 in 4.0 mi West 13.8 mph - N/A   Haze
7:56 AM 34.0 °F 27.2 °F 31.1 °F 89% 30.01 in 4.0 mi West 8.1 mph - N/A   Mostly Cloudy
8:05 AM 33.8 °F 27.0 °F 30.2 °F 87% 29.99 in 2.5 mi West 8.1 mph - N/A   Mostly Cloudy
8:15 AM 35.6 °F 29.9 °F 32.0 °F 87% 29.99 in 2.5 mi West 6.9 mph - N/A   Mostly Cloudy
8:27 AM 35.6 °F 30.7 °F 32.0 °F 87% 30.00 in 3.0 mi West 5.8 mph - N/A   Overcast
8:56 AM 36.0 °F 29.6 °F 32.0 °F 86% 30.04 in 3.0 mi West 8.1 mph - N/A   Overcast
9:56 AM 36.9 °F 30.7 °F 32.9 °F 86% 30.08 in 3.0 mi WNW 8.1 mph - N/A   Overcast
10:56 AM 37.9 °F 32.7 °F 32.9 °F 82% 30.08 in 3.0 mi West 6.9 mph - N/A   Haze
11:06 AM 39.2 °F 35.9 °F 32.0 °F 75% 30.06 in 4.0 mi NW 4.6 mph - N/A   Haze
11:40 AM 39.2 °F 37.0 °F 33.8 °F 81% 30.06 in 4.0 mi WNW 3.5 mph - N/A   Haze
11:56 AM 39.9 °F 35.8 °F 32.9 °F 76% 30.08 in 4.0 mi NW 5.8 mph - N/A   Haze
12:56 PM 39.9 °F 37.8 °F 32.9 °F 76% 30.06 in 4.0 mi West 3.5 mph - N/A   Haze
1:37 PM 42.8 °F - 33.8 °F 70% 30.05 in 4.0 mi Calm Calm - N/A   Haze
1:46 PM 42.8 °F - 33.8 °F 70% 30.06 in 4.0 mi Calm Calm - N/A   Haze
1:56 PM 41.9 °F 39.0 °F 34.0 °F 73% 30.09 in 4.0 mi WSW 4.6 mph - N/A   Haze
2:56 PM 43.0 °F - 32.9 °F 68% 30.07 in 4.0 mi Calm Calm - N/A   Haze
3:29 PM 42.8 °F 40.1 °F 33.8 °F 70% 30.07 in 5.0 mi South 4.6 mph - N/A   Haze
3:56 PM 43.0 °F 40.3 °F 32.9 °F 68% 30.09 in 4.0 mi SE 4.6 mph - N/A   Haze
4:56 PM 39.9 °F 35.8 °F 32.9 °F 76% 30.10 in 4.0 mi East 5.8 mph - N/A   Haze
5:56 PM 36.9 °F 31.4 °F 32.0 °F 83% 30.10 in 5.0 mi ENE 6.9 mph - N/A   Haze
6:56 PM 36.9 °F 33.1 °F 32.9 °F 86% 30.12 in 5.0 mi ESE 4.6 mph - N/A   Clear
7:56 PM 37.9 °F 31.5 °F 34.0 °F 86% 30.10 in 4.0 mi East 9.2 mph - N/A   Clear
8:56 PM 37.9 °F 30.9 °F 32.9 °F 82% 30.09 in 5.0 mi ESE 10.4 mph - N/A   Haze
9:56 PM 37.9 °F 30.9 °F 32.9 °F 82% 30.07 in 5.0 mi ESE 10.4 mph - N/A   Haze
10:56 PM 38.8 °F 32.1 °F 32.9 °F 79% 30.06 in 5.0 mi ESE 10.4 mph - N/A   Haze
11:56 PM 38.8 °F 30.4 °F 32.9 °F 79% 30.03 in 5.0 mi ESE 15.0 mph - N/A   Haze